Weather History for Pecs, Hungary

Change the Weather History Date:

Thursday, March 21, 2013

  Actual Average Record
Temperature  
Mean Temperature 40 °F -  
Max Temperature 43 °F 58 °F - ()
Min Temperature 37 °F 41 °F - ()
Degree Days  
Heating Degree Days 25    
Moisture  
Dew Point 36 °F    
Average Humidity 78    
Maximum Humidity 93    
Minimum Humidity 49    
Precipitation  
Precipitation 0.24 in 0.07 in - ()
Sea Level Pressure  
Sea Level Pressure 29.76 in    
Wind  
Wind Speed 12 mph ()    
Max Wind Speed 25 mph    
Max Gust Speed 40 mph    
Visibility 6.3 miles    
Events Rain    
T = Trace of Precipitation, MM = Missing Value Source: Averaged Metar Reports

Daily Weather History Graph

Daily Weather History Graph

Search for Another Location

Airport:

Trip Planner

Search our weather history database for the weather conditions in past years. The results will help you decide how hot, cold, wet, or windy it might be!

Date:

Astronomy

Mar. 21, 2013 Rise Set
Actual Time 5:48 AM CET 6:00 PM CET
Civil Twilight 5:18 AM CET 6:30 PM CET
Nautical Twilight 4:43 AM CET 7:05 PM CET
Astronomical Twilight 4:07 AM CET 7:42 PM CET
Moon 11:58 AM CET (3/21) 2:14 AM CET (3/21)
Length of Visible Light 13h 12m
Length of Day
12h 12m
Waxing Gibbous, 66% of the Moon is Illuminated
Mar 21
Waxing Gibbous
Mar 27
Full
Apr 3
Last Quarter
Apr 10
New
Apr 18
First Quarter

Hourly Weather History & Observations

Time (CET) Temp. Windchill Dew Point Humidity Pressure Visibility Wind Dir Wind Speed Gust Speed Precip Events Conditions
12:45 AM 48.2 °F - 37.4 °F 66% 29.71 in 6.2 mi NW 5.8 mph - N/A   Overcast
1:00 AM 47 °F - 37 °F 58% 29.73 in 12 mi NW 4.5 mph - -   Partly Cloudy
1:45 AM 46.4 °F 45.2 °F 37.4 °F 71% 29.71 in 6.2 mi North 3.5 mph - N/A Rain Light Rain
2:11 AM 46.4 °F - 39.2 °F 76% 29.71 in - NNE 2.3 mph - N/A   Unknown
2:13 AM 46.4 °F 45.2 °F 39.2 °F 76% 29.71 in 6.2 mi NE 3.5 mph - N/A Rain Light Rain
2:45 AM 46.4 °F 42.4 °F 39.2 °F 76% 29.68 in 6.2 mi NNW 8.1 mph - N/A Rain Light Rain
3:45 AM 44.6 °F 40.2 °F 41.0 °F 87% 29.68 in 6.2 mi NE 8.1 mph - N/A Rain Light Rain
5:15 AM 42.8 °F 37.5 °F 41.0 °F 93% 29.68 in 6.2 mi NNE 9.2 mph - N/A Rain Light Rain
5:45 AM 42.8 °F 38.0 °F 41.0 °F 93% 29.68 in 5.0 mi NNE 8.1 mph - N/A Rain Light Rain
6:00 AM - - - N/A% - 4.3 mi NNE 11.5 mph - N/A Rain Light Rain
6:15 AM 42.8 °F 38.0 °F 41.0 °F 93% 29.68 in 4.3 mi NNE 8.1 mph - N/A Rain Light Rain
6:45 AM 42.8 °F 37.5 °F 41.0 °F 93% 29.68 in 5.0 mi North 9.2 mph - N/A Rain Light Rain
7:15 AM 42.8 °F 37.0 °F 41.0 °F 93% 29.71 in 5.0 mi North 10.4 mph - N/A Rain Light Rain
7:45 AM 42.8 °F 36.2 °F 41.0 °F 93% 29.71 in 5.0 mi NNE 12.7 mph - N/A Rain Light Rain
8:15 AM 42.8 °F 36.6 °F 41.0 °F 93% 29.71 in 5.0 mi North 11.5 mph - N/A Rain Light Rain
8:45 AM 42.8 °F 35.1 °F 39.2 °F 87% 29.71 in 5.0 mi North 16.1 mph - N/A Rain Light Rain
9:00 AM - - - N/A% - 6.2 mi NNE 11.5 mph - N/A Rain Light Rain
9:15 AM 42.8 °F 35.1 °F 39.2 °F 87% 29.71 in 5.0 mi North 16.1 mph - N/A Rain Light Rain
9:45 AM 42.8 °F 34.8 °F 39.2 °F 87% 29.71 in 5.0 mi North 17.3 mph - N/A Rain Light Rain
10:15 AM 41.0 °F 31.6 °F 39.2 °F 93% 29.71 in 5.0 mi North 20.7 mph - N/A Rain Light Rain
10:26 AM 41.0 °F 31.6 °F 37.4 °F 87% 29.71 in - North 20.7 mph 39.1 mph N/A   Unknown
10:28 AM 41.0 °F 31.4 °F 37.4 °F 87% 29.74 in 6.2 mi North 21.9 mph 39.1 mph N/A Rain Light Rain
10:45 AM 41.0 °F 30.9 °F 37.4 °F 87% 29.71 in 6.2 mi North 24.2 mph - N/A Rain Light Rain
11:15 AM 41.0 °F 30.7 °F 37.4 °F 87% 29.71 in 6.2 mi North 25.3 mph 40.3 mph N/A Rain Light Rain
11:45 AM 41.0 °F 30.9 °F 37.4 °F 87% 29.71 in 6.2 mi North 24.2 mph 36.8 mph N/A Rain Light Rain
12:00 PM - - - N/A% - 6.2 mi NNW 25.3 mph 39.1 mph N/A Rain Light Rain
12:15 PM 41.0 °F 31.6 °F 37.4 °F 87% 29.74 in 6.2 mi North 20.7 mph 33.4 mph N/A Rain Light Rain
12:45 PM 41.0 °F 31.4 °F 37.4 °F 87% 29.74 in 6.2 mi North 21.9 mph 34.5 mph N/A Rain Light Rain
12:56 PM 41.0 °F 31.6 °F 37.4 °F 87% 29.74 in - North 20.7 mph 39.1 mph N/A   Unknown
12:58 PM 41.0 °F 31.6 °F 37.4 °F 87% 29.77 in 6.2 mi North 20.7 mph 38.0 mph N/A Rain Light Rain
1:00 PM 41 °F - 38 °F 83% 29.76 in 9 mi North 22.4 mph - - Rain Light Rain
1:15 PM 41.0 °F 31.4 °F 37.4 °F 87% 29.74 in 6.2 mi North 21.9 mph - N/A Rain Light Rain
1:45 PM 41.0 °F 31.4 °F 37.4 °F 87% 29.74 in 6.2 mi North 21.9 mph - N/A Rain Light Rain
2:15 PM 41.0 °F 31.4 °F 37.4 °F 87% 29.74 in 6.2 mi North 21.9 mph 35.7 mph N/A Rain Light Rain
2:45 PM 42.8 °F 33.8 °F 37.4 °F 81% 29.74 in 6.2 mi North 21.9 mph 39.1 mph N/A Rain Light Rain
3:00 PM - - - N/A% - 5.0 mi NNW 25.3 mph 39.1 mph N/A Rain Light Rain
3:15 PM 42.8 °F 34.8 °F 37.4 °F 81% 29.77 in 6.2 mi North 17.3 mph 33.4 mph N/A Rain Light Rain
3:45 PM 42.8 °F 36.2 °F 37.4 °F 81% 29.77 in 6.2 mi NNW 12.7 mph - N/A Rain Light Rain
4:15 PM 42.8 °F 34.8 °F 37.4 °F 81% 29.80 in 6.2 mi NNW 17.3 mph 28.8 mph N/A Rain Light Rain
4:45 PM 42.8 °F 34.5 °F 35.6 °F 76% 29.80 in 6.2 mi NNW 18.4 mph - N/A Rain Light Rain
5:15 PM 42.8 °F 33.8 °F 33.8 °F 70% 29.80 in 6.2 mi NNW 21.9 mph 35.7 mph N/A   Overcast
5:45 PM 42.8 °F 34.0 °F 32.0 °F 66% 29.80 in 6.2 mi NNW 20.7 mph 34.5 mph N/A   Overcast
6:15 PM 42.8 °F 33.8 °F 30.2 °F 61% 29.83 in - NNW 21.9 mph 34.5 mph N/A   Clear
6:45 PM 42.8 °F 34.3 °F 30.2 °F 61% 29.83 in - NNW 19.6 mph - N/A   Clear
7:00 PM 42 °F - 29 °F 49% 29.86 in 19 mi NNW 17.9 mph - -   Partly Cloudy
7:15 PM 42.8 °F 35.4 °F 28.4 °F 57% 29.86 in - NNW 15.0 mph - N/A   Clear
7:45 PM 41.0 °F 33.1 °F 28.4 °F 61% 29.86 in - NNW 15.0 mph - N/A   Clear
8:15 PM 41.0 °F 33.9 °F 28.4 °F 61% 29.86 in - NNW 12.7 mph - N/A   Clear
8:45 PM 41.0 °F 32.8 °F 26.6 °F 57% 29.86 in - NNW 16.1 mph 28.8 mph N/A   Clear
9:18 PM 39.2 °F 29.3 °F 26.6 °F 61% 29.86 in - NNW 20.7 mph 39.1 mph N/A   Unknown
9:21 PM 39.2 °F 29.6 °F 26.6 °F 61% 29.89 in - NNW 19.6 mph 40.3 mph N/A   Clear
9:45 PM 39.2 °F 30.2 °F 26.6 °F 61% 29.86 in - NNW 17.3 mph 28.8 mph N/A   Clear
10:45 PM 37.4 °F 28.9 °F 24.8 °F 60% 29.89 in - NW 13.8 mph - N/A   Clear
11:45 PM 37.4 °F 27.8 °F 23.0 °F 56% 29.89 in - NW 17.3 mph - N/A   Clear